STARLINK-1502, 45764

Orbit data source: Space-Track

STARLINK-1502, 45764 is a payload satellite owned by SpaceX/Seattle (US) in LEO that was launched on Sat, 13 Jun 2020 UTC via an FALCON 9 launch vehicle from the Air Force Eastern Test Range (AFETR). Payload-class satellites include a variety of spacecraft equipped with specific instruments for various scientific and technological missions. These include communications satellites like Starlink; space stations such as the ISS; scientific satellites like the Hubble; Earth observation satellites from companies like Planet Labs, Umbra, and HawkEye 360; GPS; miniature CubeSats for education and research; and military/defense satellites.

Loading next visibility...
Identifier
45764, 2020-038AL
Orbit
LEO
Country
Flag of USUS
Related business
Manufacturer
SpaceX/Seattle
Mission
Partially operational Commercial Communications
Bus & Motor
STARLINK, Unknown motor
Mass
260 kg wet, ~248 kg dry
Launch date (UTC)
2020-06-13 (6 years ago)
Launch vehicle
FALCON 9
Launch site
Air Force Eastern Test Range (AFETR)
Object type
Payload
Rocket body
Debris
Shape & HBR
Box + 1 Pan, 10.1 m
Radar Cross Section
13.562 m², Large (>1 m²)

Expand to show TLE details & history
Last TLE update: 3 hours ago

TLE from 3 hours ago
0 STARLINK-1502
1 45764U 20038AL  26038.58335647  .00636963  00000-0  16907-1 0  9996
2 45764  53.0552 349.1434 0001491  75.1075 291.0074 15.35560480  5731
Epoch: 2026-02-07T14:00Z
TLE epoch observation values (Epoch: 2026-02-07T14:00:01.999Z)
Latitude
4.82099°
Longitude
5.04672°
Altitude
459.284 km
Speed
7.639 km/s
True Right ascension
23h 31m 02s
True Declination
4° 47' 28"
Sunlit
Object was in daylight at epoch
Visualization orbit readout
Latitude
Unknown
Longitude
Unknown
Altitude
Unknown
Speed
Unknown
Apparent Right ascension
Unknown
Apparent Declination
Unknown
Sunlit
N/A
Visualization observer readout
Local Sidereal Time
19:33:02
Azimuth
Unknown
Elevation
Unknown
Doppler factor
Unknown
Orbital elements
Apogee altitude
460.55 km
Perigee altitude
458.511 km
Semi-major axis
6,837.667 km
Eccentricity
0.00015
Inclination
53.0552°
RAAN
349.1434°
Arg. of periapsis
75.1075°
True anomaly
290.99145°
Mean anomaly
291.0074°
Eccentric anomaly
290.99942°
Mean motion
3.83867 °/min
Orbital period
93.78 mins
BSTAR
0.016907
Loading maneuver chart data...
Computing Atmospheric mass density...

Documentation

Showing up to 5 results
|